This is the latest recevied weather packets stored in our database for station/object DD3UTS-13. If no packets are shown the sender has not sent any weather packets the latest 10 day(s).
| Time | Temp. | Humidity | Pressure | Rain* | Wind** | Luminosity | Snow |
|---|---|---|---|---|---|---|---|
| 1778136332 | 10° C | 89% | 1008.8 hPa | 4.06 mm | - | 52 W/m² | - |
| 1778136032 | 10° C | 89% | 1008.7 hPa | 4.06 mm | - | 46 W/m² | - |
| 1778135732 | 10° C | 89% | 1008.7 hPa | 3.81 mm | - | 48 W/m² | - |
| 1778135431 | 10° C | 89% | 1008.6 hPa | 3.81 mm | - | 44 W/m² | - |
| 1778135132 | 9.44° C | 89% | 1008.6 hPa | 3.81 mm | - | 46 W/m² | - |
| 1778134832 | 9.44° C | 89% | 1008.5 hPa | 3.81 mm | - | 39 W/m² | - |
| 1778134531 | 10° C | 89% | 1008.5 hPa | 3.81 mm | - | 37 W/m² | - |
| 1778134232 | 10° C | 89% | 1008.4 hPa | 3.56 mm | - | 38 W/m² | - |
| 1778133932 | 10° C | 89% | 1008.4 hPa | 3.3 mm | - | 25 W/m² | - |
| 1778133632 | 10° C | 89% | 1008.4 hPa | 3.3 mm | - | 24 W/m² | - |
| 1778133332 | 10° C | 89% | 1008.4 hPa | 2.79 mm | - | 20 W/m² | - |
| 1778133032 | 10° C | 89% | 1008.3 hPa | 2.79 mm | - | 19 W/m² | - |
| 1778132732 | 10° C | 89% | 1008.3 hPa | 2.54 mm | - | 23 W/m² | - |
| 1778132431 | 10° C | 89% | 1008.2 hPa | 2.29 mm | - | 30 W/m² | - |
| 1778132131 | 10° C | 89% | 1008.2 hPa | 2.29 mm | - | 26 W/m² | - |
| 1778131832 | 9.44° C | 89% | 1008.1 hPa | 2.03 mm | - | 17 W/m² | - |
| 1778131532 | 9.44° C | 89% | 1008.1 hPa | 1.78 mm | - | 16 W/m² | - |
| 1778131233 | 9.44° C | 89% | 1008 hPa | 1.52 mm | - | 16 W/m² | - |
| 1778130932 | 9.44° C | 89% | 1008 hPa | 1.02 mm | - | 17 W/m² | - |
| 1778130631 | 9.44° C | 89% | 1007.9 hPa | 0.76 mm | - | 13 W/m² | - |
| 1778130332 | 9.44° C | 89% | 1007.9 hPa | 0.51 mm | - | 15 W/m² | - |
| 1778130031 | 9.44° C | 89% | 1007.9 hPa | 5.33 mm | - | 16 W/m² | - |
| 1778129731 | 9.44° C | 89% | 1007.8 hPa | 5.33 mm | - | 15 W/m² | - |
| 1778129431 | 9.44° C | 89% | 1007.8 hPa | 4.57 mm | - | 5 W/m² | - |
| 1778129132 | 9.44° C | 89% | 1007.8 hPa | 4.57 mm | - | 5 W/m² | - |
* Rain latest 24 hours (hover to see other rain measurements)
** Current wind speed in m/s (hover to see current wind gust speed)